Location: Newark
(23.5328°S, 46.7919°W)
Time: 02:36:02
(UTC+00:00)

Envisat - Pass Details

Date: 06 March 2021
Orbit: 764 x 766 km, 98.1° (Epoch: 18 April)

Event Time Altitude Azimuth Distance (km) Brightness Sun altitude
Rises 08:25:59 0° 3° (N) 3,211 6.1 -9.7°
Reaches altitude 10° 08:28:19 10° 358° (N) 2,292 5.4 -9.2°
Maximum altitude 08:33:15 55° 281° (W) 921 3.1 -8.1°
Drops below altitude 10° 08:38:15 10° 203° (SSW) 2,318 5.4 -6.9°
Sets 08:40:38 0° 198° (SSW) 3,251 6.2 -6.4°
